When you browse on this site, cookies collect data to enhance your experience and personalize the content and advertising you see.
Visit our Privacy Policy to learn more. By continuing to use the site, you agree to this use of cookies and data.
  • In Italy
  • List of Countries
  • For 7 days
  • Water Temperature
  • Satellite Maps
  • Weather Map
  • Weather Widgets
  • user-avatar
    Login

    Hourly Weather Giumri

    Today, 18 January, Friday

    Time Temperature Precipitation Wind Pressure Humidity
    00:00 -12°C° 0 mm 3 mps 628 mmHg 82%
    01:00 -13°C° 0 mm 3 mps 628 mmHg 81%
    02:00 -13°C° 0 mm 3 mps 629 mmHg 81%
    03:00 -12°C° 0 mm 2 mps 629 mmHg 81%
    04:00 -12°C° 0 mm 2 mps 629 mmHg 80%
    05:00 -12°C° 0 mm 2 mps 630 mmHg 80%
    06:00 -13°C° 0 mm 2 mps 630 mmHg 80%
    07:00 -12°C° 0 mm 2 mps 630 mmHg 80%
    08:00 -12°C° 0 mm 2 mps 631 mmHg 80%
    09:00 -10°C° 0 mm 2 mps 631 mmHg 80%
    10:00 -9°C° 0 mm 2 mps 632 mmHg 79%
    11:00 -6°C° 0 mm 1 mps 632 mmHg 79%
    12:00 -4°C° 0 mm 1 mps 632 mmHg 78%
    13:00 -4°C° 0 mm 1 mps 632 mmHg 80%
    14:00 -4°C° 0 mm 1 mps 632 mmHg 82%
    15:00 -4°C° 0 mm 1 mps 632 mmHg 84%
    16:00 -6°C° 0 mm 1 mps 632 mmHg 82%
    17:00 -8°C° 0 mm 1 mps 632 mmHg 81%
    18:00 -9°C° 0 mm 1 mps 632 mmHg 80%
    19:00 -10°C° 0 mm 1 mps 632 mmHg 79%
    20:00 -10°C° 0 mm 1 mps 632 mmHg 78%
    21:00 -10°C° 0 mm 1 mps 632 mmHg 76%
    22:00 -11°C° 0 mm 1 mps 632 mmHg 76%
    23:00 -11°C° 0 mm 1 mps 632 mmHg 76%

    Tomorrow, 19 January, Saturday

    Time Temperature Precipitation Wind Pressure Humidity
    00:00 -11°C° 0 mm 1 mps 632 mmHg 76%
    01:00 -11°C° 0 mm 1 mps 632 mmHg 75%
    02:00 -11°C° 0 mm 1 mps 632 mmHg 75%
    03:00 -11°C° 0 mm 1 mps 632 mmHg 74%
    04:00 -11°C° 0 mm 1 mps 632 mmHg 73%
    05:00 -11°C° 0 mm 1 mps 632 mmHg 72%
    06:00 -12°C° 0 mm 1 mps 631 mmHg 71%
    07:00 -11°C° 0 mm 1 mps 632 mmHg 70%
    08:00 -10°C° 0 mm 1 mps 632 mmHg 69%
    09:00 -10°C° 0 mm 1 mps 632 mmHg 67%
    10:00 -8°C° 0 mm 1 mps 632 mmHg 68%
    11:00 -7°C° 0 mm 1 mps 632 mmHg 69%
    12:00 -4°C° 0 mm 1 mps 632 mmHg 69%
    13:00 -4°C° 0 mm 1 mps 632 mmHg 69%
    14:00 -4°C° 0 mm 1 mps 631 mmHg 70%
    15:00 -6°C° 0 mm 1 mps 631 mmHg 70%
    16:00 -7°C° 0 mm 1 mps 631 mmHg 66%
    17:00 -9°C° 0 mm 1 mps 631 mmHg 61%
    18:00 -10°C° 0 mm 1 mps 631 mmHg 57%
    19:00 -10°C° 0 mm 1 mps 631 mmHg 56%
    20:00 -10°C° 0 mm 1 mps 631 mmHg 56%
    21:00 -10°C° 0 mm 1 mps 631 mmHg 55%
    22:00 -10°C° 0 mm 1 mps 632 mmHg 56%
    23:00 -10°C° 0 mm 1 mps 632 mmHg 57%

    Day after tomorrow, 20 January, Sunday

    Time Temperature Precipitation Wind Pressure Humidity
    00:00 -10°C° 0 mm 1 mps 632 mmHg 58%
    01:00 -9°C° 0 mm 1 mps 632 mmHg 58%
    02:00 -9°C° 0 mm 1 mps 632 mmHg 58%
    03:00 -9°C° 0 mm 1 mps 632 mmHg 58%
    04:00 -9°C° 0 mm 1 mps 632 mmHg 58%
    05:00 -9°C° 0 mm 1 mps 632 mmHg 58%
    06:00 -9°C° 0 mm 1 mps 632 mmHg 58%
    07:00 -9°C° 0 mm 1 mps 633 mmHg 59%
    08:00 -9°C° 0 mm 1 mps 633 mmHg 59%
    09:00 -8°C° 0 mm 1 mps 633 mmHg 60%
    10:00 -7°C° 0 mm 1 mps 633 mmHg 62%
    11:00 -4°C° 0 mm 1 mps 633 mmHg 63%
    12:00 -3°C° 0 mm 1 mps 633 mmHg 65%
    13:00 -3°C° 0 mm 1 mps 633 mmHg 66%
    14:00 -4°C° 0 mm 0 mps 633 mmHg 68%
    15:00 -5°C° 0 mm 0 mps 632 mmHg 69%
    16:00 -6°C° 0 mm 1 mps 632 mmHg 65%
    17:00 -8°C° 0 mm 1 mps 632 mmHg 61%
    18:00 -9°C° 0 mm 1 mps 632 mmHg 57%
    19:00 -9°C° 0 mm 1 mps 632 mmHg 56%
    20:00 -10°C° 0 mm 1 mps 632 mmHg 55%
    21:00 -10°C° 0 mm 1 mps 632 mmHg 53%
    22:00 -10°C° 0 mm 1 mps 632 mmHg 54%
    23:00 -10°C° 0 mm 1 mps 632 mmHg 55%

    21 January, Monday

    Time Temperature Precipitation Wind Pressure Humidity
    00:00 -11°C° 0 mm 1 mps 632 mmHg 55%
    01:00 -11°C° 0 mm 1 mps 632 mmHg 57%
    02:00 -11°C° 0 mm 1 mps 632 mmHg 58%
    03:00 -11°C° 0 mm 1 mps 632 mmHg 59%
    04:00 -11°C° 0 mm 1 mps 632 mmHg 60%
    05:00 -11°C° 0 mm 1 mps 632 mmHg 60%
    06:00 -12°C° 0 mm 1 mps 631 mmHg 61%
    07:00 -11°C° 0 mm 1 mps 632 mmHg 62%
    08:00 -10°C° 0 mm 1 mps 632 mmHg 63%
    09:00 -10°C° 0 mm 1 mps 632 mmHg 65%
    10:00 -8°C° 0 mm 1 mps 632 mmHg 66%
    11:00 -7°C° 0 mm 1 mps 632 mmHg 67%
    12:00 -4°C° 0 mm 1 mps 632 mmHg 67%
    13:00 -4°C° 0 mm 1 mps 632 mmHg 69%
    14:00 -6°C° 0 mm 1 mps 631 mmHg 70%
    15:00 -6°C° 0 mm 1 mps 631 mmHg 72%
    16:00 -7°C° 0 mm 1 mps 630 mmHg 68%
    17:00 -9°C° 0 mm 1 mps 630 mmHg 64%
    18:00 -10°C° 0 mm 1 mps 630 mmHg 60%
    19:00 -11°C° 0 mm 1 mps 630 mmHg 60%
    20:00 -11°C° 0 mm 1 mps 630 mmHg 60%
    21:00 -11°C° 0 mm 1 mps 630 mmHg 61%
    22:00 -11°C° 0 mm 1 mps 630 mmHg 62%
    23:00 -11°C° 0 mm 1 mps 630 mmHg 64%

    22 January, Tuesday

    Time Temperature Precipitation Wind Pressure Humidity
    00:00 -11°C° 0 mm 1 mps 630 mmHg 65%
    01:00 -11°C° 0 mm 1 mps 630 mmHg 65%
    02:00 -11°C° 0 mm 1 mps 630 mmHg 66%
    03:00 -11°C° 0 mm 1 mps 630 mmHg 66%
    04:00 -11°C° 0 mm 1 mps 630 mmHg 66%
    05:00 -11°C° 0 mm 1 mps 630 mmHg 67%
    06:00 -11°C° 0 mm 1 mps 630 mmHg 67%
    07:00 -10°C° 0 mm 1 mps 630 mmHg 69%
    08:00 -10°C° 0 mm 1 mps 631 mmHg 71%
    09:00 -9°C° 0 mm 1 mps 631 mmHg 73%
    10:00 -7°C° 0 mm 1 mps 631 mmHg 73%
    11:00 -6°C° 0 mm 1 mps 631 mmHg 74%
    12:00 -3°C° 0 mm 1 mps 631 mmHg 75%
    13:00 -3°C° 0 mm 1 mps 630 mmHg 77%
    14:00 -3°C° 0 mm 1 mps 630 mmHg 78%
    15:00 -3°C° 0 mm 1 mps 630 mmHg 80%
    16:00 -6°C° 0 mm 1 mps 630 mmHg 79%
    17:00 -7°C° 0 mm 1 mps 630 mmHg 77%
    18:00 -9°C° 0 mm 1 mps 630 mmHg 76%
    19:00 -9°C° 0 mm 1 mps 630 mmHg 77%
    20:00 -9°C° 0 mm 1 mps 630 mmHg 77%
    21:00 -9°C° 0 mm 1 mps 630 mmHg 78%
    22:00 -10°C° 0 mm 1 mps 630 mmHg 79%
    23:00 -10°C° 0 mm 1 mps 630 mmHg 79%

    23 January, Wednesday

    Time Temperature Precipitation Wind Pressure Humidity
    00:00 -10°C° 0 mm 1 mps 630 mmHg 80%
    01:00 -10°C° 0 mm 1 mps 630 mmHg 81%
    02:00 -11°C° 0 mm 1 mps 630 mmHg 81%
    03:00 -11°C° 0 mm 1 mps 630 mmHg 81%
    04:00 -11°C° 0 mm 1 mps 630 mmHg 81%
    05:00 -11°C° 0 mm 1 mps 630 mmHg 81%
    06:00 -11°C° 0 mm 1 mps 630 mmHg 80%
    07:00 -11°C° 0 mm 1 mps 630 mmHg 80%
    08:00 -10°C° 0 mm 1 mps 631 mmHg 79%
    09:00 -9°C° 0 mm 1 mps 631 mmHg 79%
    10:00 -8°C° 0 mm 1 mps 631 mmHg 77%
    11:00 -6°C° 0 mm 1 mps 631 mmHg 76%
    12:00 -4°C° 0 mm 1 mps 631 mmHg 75%
    13:00 -4°C° 0 mm 1 mps 631 mmHg 76%
    14:00 -4°C° 0 mm 1 mps 631 mmHg 78%
    15:00 -4°C° 0 mm 1 mps 630 mmHg 80%
    16:00 -6°C° 0 mm 1 mps 630 mmHg 78%
    17:00 -8°C° 0 mm 1 mps 630 mmHg 76%
    18:00 -9°C° 0 mm 1 mps 630 mmHg 75%
    19:00 -10°C° 0 mm 1 mps 630 mmHg 75%
    20:00 -10°C° 0 mm 1 mps 630 mmHg 75%
    21:00 -10°C° 0 mm 1 mps 631 mmHg 75%
    22:00 -10°C° 0 mm 1 mps 631 mmHg 77%
    23:00 -10°C° 0 mm 1 mps 631 mmHg 78%
    Show more